| time (UTC) | temp F | wind direction | speed MPH | gust MPH | rain 1hr in | rain 24hr in | rain mn in | humidity % | barometer mb |
| 20260903063027 | 68 | 148 | 0.0 | 1.0 | 0.00 | 1.05 | 0.22 | 99 | 1015.9 |
| 20260903060022 | 68 | 159 | 0.0 | 0.0 | 0.01 | 1.06 | 0.22 | 99 | 1016.4 |
| 20260903054519 | 68 | 169 | 0.0 | 0.0 | 0.02 | 1.06 | 0.22 | 99 | 1017.0 |
| 20260903053020 | 68 | 156 | 0.0 | 3.0 | 0.19 | 1.06 | 0.22 | 99 | 1016.7 |
| 20260903050013 | 68 | 81 | 0.0 | 2.0 | 0.22 | 1.06 | 0.22 | 98 | 1017.4 |
| 20260903044511 | 69 | 89 | 1.0 | 12.0 | 0.20 | 1.04 | 0.20 | 98 | 1017.8 |
| 20260903043006 | 72 | 337 | 4.0 | 14.0 | 0.06 | 0.90 | 0.06 | 94 | 1018.4 |
| 20260903040010 | 71 | 145 | 0.0 | 5.0 | 0.00 | 0.88 | 0.84 | 97 | 1016.4 |
| 20260903034504 | 71 | 113 | 1.0 | 3.0 | 0.00 | 0.88 | 0.84 | 97 | 1016.7 |
| 20260903033006 | 71 | 143 | 0.0 | 2.0 | 0.00 | 0.88 | 0.84 | 97 | 1017.0 |
| 20260903030003 | 71 | 156 | 0.0 | 0.0 | 0.00 | 1.38 | 0.84 | 97 | 1017.1 |
| 20260903024505 | 71 | 133 | 0.0 | 1.0 | 0.00 | 1.38 | 0.84 | 97 | 1017.1 |
| 20260903023002 | 71 | 108 | 0.0 | 1.0 | 0.00 | 1.38 | 0.84 | 96 | 1017.0 |
| 20260903020001 | 72 | 138 | 0.0 | 1.0 | 0.00 | 1.38 | 0.84 | 96 | 1016.6 |
| 20260903014501 | 72 | 139 | 0.0 | 2.0 | 0.00 | 1.38 | 0.84 | 96 | 1016.4 |
| 20260903013108 | 72 | 146 | 0.0 | 2.0 | 0.00 | 1.38 | 0.84 | 96 | 1016.7 |
| 20260903010105 | 73 | 142 | 0.0 | 0.0 | 0.00 | 1.38 | 0.84 | 95 | 1017.0 |
| 20260903004605 | 73 | 142 | 0.0 | 1.0 | 0.00 | 1.38 | 0.84 | 94 | 1016.9 |
| 20260903003100 | 73 | 125 | 0.0 | 1.0 | 0.00 | 1.38 | 0.84 | 93 | 1016.7 |
| 20260903001659 | 74 | 126 | 0.0 | 0.0 | 0.00 | 1.38 | 0.84 | 92 | 1016.8 |
| 20260903000058 | 74 | 126 | 0.0 | 2.0 | 0.00 | 1.38 | 0.84 | 92 | 1016.7 |
| 20260902234615 | 74 | 156 | 0.0 | 3.0 | 0.00 | 1.38 | 0.84 | 91 | 1016.7 |
| 20260902233101 | 74 | 132 | 0.0 | 3.0 | 0.00 | 1.38 | 0.84 | 92 | 1016.7 |
| 20260902231700 | 74 | 139 | 0.0 | 3.0 | 0.00 | 1.38 | 0.84 | 91 | 1016.6 |
| 20260902230103 | 74 | 135 | 1.0 | 7.0 | 0.00 | 1.38 | 0.84 | 91 | 1016.5 |
| 20260902224610 | 74 | 133 | 0.0 | 4.0 | 0.00 | 1.38 | 0.84 | 92 | 1016.6 |
| 20260902223055 | 75 | 146 | 0.0 | 4.0 | 0.00 | 1.38 | 0.84 | 91 | 1016.7 |
| 20260902220057 | 77 | 136 | 2.0 | 5.0 | 0.00 | 1.38 | 0.84 | 87 | 1016.6 |
| 20260902214556 | 77 | 116 | 0.0 | 2.0 | 0.00 | 1.38 | 0.84 | 89 | 1016.7 |
| 20260902213054 | 0 | 0.0 | 0.0 | 0.00 | 1.38 | 0.84 | 1017.0 | ||
| 20260902211650 | 0 | 0.0 | 0.0 | 0.00 | 1.38 | 0.84 | 1016.9 | ||
| 20260902210045 | 0 | 0.0 | 0.0 | 0.00 | 1.38 | 0.84 | 1017.0 | ||
| 20260902204541 | 0 | 0.0 | 0.0 | 0.00 | 1.38 | 0.84 | 1017.0 | ||
| 20260902203037 | 0 | 0.0 | 0.0 | 0.00 | 1.38 | 0.84 | 1017.0 | ||
| 20260902201635 | 75 | 136 | 0.0 | 3.0 | 0.00 | 1.38 | 0.84 | 92 | 1017.0 |
| 20260902200049 | 75 | 108 | 0.0 | 2.0 | 0.00 | 1.38 | 0.84 | 92 | 1016.8 |
| 20260902194532 | 74 | 122 | 1.0 | 4.0 | 0.00 | 1.38 | 0.84 | 93 | 1017.0 |
| 20260902193029 | 74 | 140 | 0.0 | 3.0 | 0.01 | 1.38 | 0.84 | 94 | 1017.7 |
| 20260902191629 | 74 | 124 | 0.0 | 2.0 | 0.01 | 1.38 | 0.84 | 96 | 1017.9 |
| 20260902190044 | 73 | 82 | 0.0 | 2.0 | 0.01 | 1.38 | 0.84 | 97 | 1017.6 |
| 20260902184531 | 72 | 144 | 0.0 | 4.0 | 0.01 | 1.38 | 0.84 | 98 | 1017.0 |
| 20260902183026 | 71 | 225 | 1.0 | 4.0 | 0.03 | 1.38 | 0.84 | 98 | 1017.1 |
| 20260902180022 | 71 | 149 | 0.0 | 3.0 | 0.05 | 1.37 | 0.83 | 99 | 1017.6 |
| 20260902174518 | 71 | 136 | 0.0 | 3.0 | 0.08 | 1.37 | 0.83 | 99 | 1018.2 |
| 20260902173014 | 0 | 0.0 | 0.0 | 0.13 | 1.35 | 0.81 | 1018.2 | ||
| 20260902171614 | 71 | 152 | 2.0 | 4.0 | 0.20 | 1.35 | 0.81 | 99 | 1018.5 |
| 20260902170012 | 71 | 153 | 1.0 | 4.0 | 0.39 | 1.33 | 0.79 | 99 | 1018.8 |
| 20260902164515 | 71 | 142 | 0.0 | 1.0 | 0.75 | 1.30 | 0.76 | 98 | 1019.1 |
| 20260902163012 | 71 | 156 | 0.0 | 1.0 | 0.68 | 1.23 | 0.69 | 98 | 1019.6 |
| 20260902161613 | 72 | 328 | 0.0 | 2.0 | 0.60 | 1.14 | 0.61 | 97 | 1019.7 |
| 20260902160015 | 72 | 4 | 1.0 | 8.0 | 0.53 | 1.08 | 0.54 | 96 | 1020.3 |
| 20260902154507 | 0 | 0.0 | 0.0 | 0.00 | 0.55 | 0.01 | 1019.8 | ||
| 20260902153005 | 0 | 150 | 0.0 | 0.0 | 0.00 | 0.55 | 0.01 | 1018.4 | |
| 20260902151600 | 73 | 122 | 2.0 | 6.0 | 0.00 | 0.55 | 0.01 | 94 | 1018.3 |
| 20260902150059 | 73 | 122 | 1.0 | 5.0 | 0.00 | 0.55 | 0.01 | 96 | 1018.0 |
| 20260902144555 | 73 | 118 | 1.0 | 6.0 | 0.00 | 0.55 | 0.01 | 97 | 1018.2 |
| 20260902143051 | 72 | 128 | 1.0 | 4.0 | 0.00 | 0.55 | 0.01 | 99 | 1018.5 |
| 20260902141555 | 72 | 141 | 2.0 | 6.0 | 0.00 | 0.55 | 0.01 | 100 | 1018.6 |
| 20260902140050 | 72 | 126 | 1.0 | 4.0 | 0.00 | 0.55 | 0.01 | 100 | 1018.4 |
| 20260902134548 | 71 | 143 | 1.0 | 4.0 | 0.00 | 0.55 | 0.01 | 100 | 1018.5 |
| 20260902133047 | 70 | 121 | 0.0 | 2.0 | 0.00 | 0.55 | 0.01 | 100 | 1018.7 |
| 20260902131546 | 70 | 149 | 1.0 | 4.0 | 0.00 | 0.55 | 0.01 | 100 | 1018.4 |
| 20260902130045 | 70 | 96 | 0.0 | 2.0 | 0.00 | 0.55 | 0.01 | 100 | 1018.4 |
| 20260902124555 | 70 | 120 | 0.0 | 3.0 | 0.00 | 0.55 | 0.01 | 100 | 1017.9 |
| 20260902123045 | 69 | 124 | 0.0 | 3.0 | 0.00 | 0.55 | 0.01 | 99 | 1017.6 |
| 20260902121547 | 69 | 98 | 0.0 | 2.0 | 0.00 | 0.55 | 0.01 | 99 | 1017.8 |
| 20260902120046 | 70 | 136 | 0.0 | 2.0 | 0.00 | 0.55 | 0.01 | 100 | 1017.9 |
| 20260902114545 | 69 | 109 | 0.0 | 1.0 | 0.00 | 0.55 | 0.01 | 99 | 1017.8 |
| 20260902113052 | 69 | 82 | 0.0 | 2.0 | 0.00 | 0.55 | 0.01 | 99 | 1017.4 |
| 20260902111552 | 69 | 77 | 0.0 | 1.0 | 0.00 | 0.55 | 0.01 | 99 | 1017.5 |
| 20260902110041 | 69 | 25 | 0.0 | 2.0 | 0.00 | 0.55 | 0.01 | 99 | 1017.3 |
| 20260902104543 | 68 | 63 | 0.0 | 2.0 | 0.00 | 0.55 | 0.01 | 99 | 1017.4 |
| 20260902103040 | 69 | 301 | 0.0 | 0.0 | 0.00 | 0.55 | 0.01 | 99 | 1017.6 |
| 20260902101542 | 69 | 300 | 0.0 | 1.0 | 0.00 | 0.55 | 0.01 | 99 | 1017.5 |
| 20260902100039 | 68 | 300 | 0.0 | 1.0 | 0.00 | 0.55 | 0.01 | 99 | 1017.6 |
| 20260902094547 | 68 | 301 | 0.0 | 0.0 | 0.00 | 0.55 | 0.01 | 99 | 1017.7 |
| 20260902093036 | 68 | 301 | 0.0 | 1.0 | 0.00 | 0.55 | 0.01 | 99 | 1017.5 |
| 20260902091544 | 68 | 301 | 0.0 | 0.0 | 0.00 | 0.55 | 0.01 | 99 | 1017.2 |
| 20260902090033 | 68 | 301 | 0.0 | 1.0 | 0.00 | 0.55 | 0.01 | 99 | 1017.2 |
| 20260902084532 | 68 | 301 | 0.0 | 0.0 | 0.00 | 0.55 | 0.01 | 99 | 1017.1 |
| 20260902083030 | 68 | 301 | 0.0 | 0.0 | 0.00 | 0.55 | 0.01 | 99 | 1016.8 |
| 20260902081530 | 67 | 182 | 0.0 | 0.0 | 0.00 | 0.55 | 0.01 | 99 | 1016.8 |
| 20260902080037 | 68 | 182 | 0.0 | 0.0 | 0.00 | 0.55 | 0.01 | 99 | 1016.9 |
| 20260902074537 | 68 | 182 | 0.0 | 0.0 | 0.00 | 0.55 | 0.01 | 99 | 1016.7 |
| 20260902073035 | 68 | 182 | 0.0 | 0.0 | 0.00 | 0.55 | 0.01 | 99 | 1016.7 |
| 20260902071535 | 68 | 301 | 0.0 | 0.0 | 0.00 | 0.55 | 0.01 | 99 | 1016.7 |
| 20260902070026 | 68 | 301 | 0.0 | 1.0 | 0.00 | 0.55 | 0.01 | 99 | 1016.6 |
| 20260902064522 | 69 | 298 | 0.0 | 1.0 | 0.01 | 0.55 | 0.01 | 99 | 1016.5 |